Tracking 29933 objects as of 2-Dec-2024
HD Live streaming from Space Station
objects crossing your sky now

STARLINK-31848

Track STARLINK-31848 now!
10-day predictions
STARLINK-31848 is classified as:


NORAD ID: 59784
Int'l Code: 2024-093C
Perigee: 449.9 km
Apogee: 452.4 km
Inclination: 43.0 °
Period: 93.5 minutes
Semi major axis: 6822 km
RCS: Unknown
Launch date: May 18, 2024
Source: United States (US)
Launch site: AIR FORCE EASTERN TEST RANGE (AFETR)
Your satellite tracking list
Your tracking list is empty




NASA's NSSDC Master Catalog

Two Line Element Set (TLE):
1 59784U 24093C   24336.99573269  .00004073  00000-0  10465-3 0  9992
2 59784  43.0069 312.2412 0001824 289.7414  70.3246 15.40724493 31816
Source of the keplerian elements: AFSPC